Content
SEND FEEDBACK

Daily
Averages
Monthly
Summary
United States of America

CARMI, ILLINOIS


Home > North America > United States > Illinois
Elevation: 400 feet     Latitude: 38 05N     Longitude: 088 10W

WEATHER
 
SELECT A DAY
Number of Records: 257,868;   Date Range: 11/18/03 - 7/20/14
 
SHARE

PRINT THIS DATA

[ ← Previous Day ]
WEATHER ALMANAC - FEBRUARY 13, 2013
[ Next Day → ]
[ °C ]   °F
Weather ElementAverageHighLow
Temperature41.1 °F49.1 °F (2:55 pm)34 °F (7:35 am)
Dewpoint34.9 °F37.8 °F (11:55 pm)32.7 °F (3:55 am)
Humidity79.6 %99 % (7:55 am)55 % (3:55 pm)
Barometer29.88 in29.92 in (10:15 am)29.85 in (3:15 am)
Wind Speed7.9 mph12.7 mph (1:15 am)
Weather ElementAverage
Visibility8.2 mi
Wind DirectionSW (222.1 °)

Weather ElementTotal
Precipitation0.07 in
Heating Degree Days23.5 (Base 65)
Averaged from 70 records on February 13, 2013
WEATHER CONDITIONS BREAKOUT
WIND DIRECTION BREAKOUT
WEATHER BY HOUR - FEBRUARY 13, 2013
[ °C ]   °F
Local TimeTemperatureDewpointHumidityBarometerVisibilityWind DirectionWind SpeedGust SpeedPrecipitationEventsConditions
12:35 AM41.9 °F34.5 °F75 %29.90 in10.0 miNorth (360°)8.1 mphOvercast
12:55 AM41.2 °F35.2 °F79 %29.90 in10.0 miNorth (360°)8.1 mphOvercast
1:15 AM41.0 °F34.5 °F78 %29.88 in10.0 miNorth (10°)12.7 mphOvercast
1:35 AM40.5 °F34.2 °F78 %29.88 in10.0 miNorth (360°)10.4 mphOvercast
1:55 AM40.3 °F34.3 °F79 %29.87 in10.0 miNorth (350°)9.2 mphOvercast
2:15 AM40.3 °F34.3 °F79 %29.87 in10.0 miNorth (350°)9.2 mphOvercast
2:35 AM40.3 °F34.0 °F78 %29.87 in10.0 miNorth (360°)4.6 mphOvercast
2:55 AM40.1 °F34.0 °F79 %29.86 in10.0 miNorth (350°)9.2 mphOvercast
3:15 AM40.1 °F33.4 °F77 %29.85 in10.0 miNNW (340°)12.7 mphOvercast
3:35 AM40.1 °F32.9 °F75 %29.85 in10.0 miNorth (350°)10.4 mphOvercast
3:55 AM40.1 °F32.7 °F75 %29.86 in10.0 miNNW (340°)11.5 mphOvercast
4:15 AM39.4 °F33.3 °F79 %29.85 in10.0 miNNW (340°)11.5 mphOvercast
4:35 AM39.2 °F33.1 °F79 %29.86 in10.0 miNorth (350°)8.1 mphOvercast
4:55 AM39.2 °F33.8 °F81 %29.86 in10.0 miNW (320°)6.9 mphLight Drizzle
5:15 AM38.7 °F33.8 °F83 %29.86 in7.0 miNW (320°)3.5 mphRainRain
5:35 AM38.3 °F34.0 °F84 %29.86 in7.0 miNorth (360°)5.8 mph0.01 inRainLight Rain
6:15 AM37.4 °F33.6 °F86 %29.87 in7.0 miNorth (350°)8.1 mphRainRain
6:35 AM36.5 °F33.8 °F90 %29.88 in7.0 miNorth (350°)8.1 mphRainRain
6:55 AM35.1 °F33.3 °F93 %29.88 in4.0 miNNE (20°)6.9 mphRainLight Rain
7:15 AM34.3 °F33.4 °F97 %29.89 in1.8 miNorth (10°)6.9 mph0.01 inSnowLight Snow
7:35 AM34.0 °F33.4 °F98 %29.89 in1.0 miNNE (30°)4.6 mph0.02 inSnowLight Snow
7:55 AM34.0 °F33.6 °F99 %29.89 in0.8 miNorth (10°)4.6 mph0.03 in
8:15 AM34.0 °F33.8 °F99 %29.90 in0.8 miNorth (360°)3.5 mph
8:35 AM34.2 °F33.8 °F99 %29.90 in1.0 miNorth (360°)3.5 mphRainLight Rain
8:55 AM34.2 °F33.8 °F99 %29.90 in0.8 miCalmRainLight Rain
9:15 AM34.7 °F34.2 °F98 %29.90 in1.8 miCalmRainLight Rain
9:35 AM34.9 °F34.7 °F99 %29.91 in2.0 miCalmOvercast
9:55 AM35.4 °F34.9 °F98 %29.91 in1.5 miCalmOvercast
10:15 AM36.0 °F35.6 °F99 %29.92 in2.0 miCalmOvercast
10:35 AM37.6 °F36.7 °F97 %29.92 in2.5 miWNW (290°)4.6 mphOvercast
10:55 AM38.7 °F36.9 °F93 %29.91 in3.0 miWSW (240°)3.5 mphRainLight Rain
11:15 AM40.5 °F35.8 °F83 %29.90 in7.0 miSW (220°)5.8 mphMostly Cloudy
11:35 AM41.9 °F35.8 °F79 %29.90 in10.0 miWSW (250°)6.9 mphScattered Clouds
11:55 AM42.6 °F36.0 °F77 %29.89 in7.0 miSSW (200°)5.8 mphScattered Clouds
12:15 PM43.5 °F35.8 °F74 %29.88 in7.0 miSW (230°)4.6 mphMostly Cloudy
12:35 PM44.6 °F34.9 °F69 %29.87 in10.0 miWSW (240°)3.5 mphScattered Clouds
12:55 PM45.5 °F35.6 °F68 %29.87 in10.0 miSW (220°)6.9 mphScattered Clouds
1:15 PM46.9 °F35.4 °F64 %29.87 in10.0 miWest (260°)5.8 mphScattered Clouds
1:35 PM47.5 °F34.5 °F61 %29.86 in10.0 miWest (260°)8.1 mphScattered Clouds
1:55 PM48.0 °F34.7 °F60 %29.86 in10.0 miSW (230°)9.2 mphScattered Clouds
2:15 PM47.1 °F35.4 °F64 %29.86 in10.0 miSW (220°)10.4 mphScattered Clouds
2:35 PM48.2 °F35.4 °F61 %29.85 in10.0 miSW (230°)10.4 mphScattered Clouds
2:55 PM49.1 °F36.0 °F61 %29.86 in10.0 miSW (220°)11.5 mphScattered Clouds
3:15 PM48.9 °F35.4 °F60 %29.86 in10.0 miSW (220°)11.5 mphScattered Clouds
3:35 PM49.1 °F34.2 °F56 %29.86 in10.0 miSW (220°)10.4 mphClear
3:55 PM49.1 °F33.6 °F55 %29.86 in10.0 miSW (230°)11.5 mphClear
4:15 PM49.1 °F33.6 °F55 %29.85 in10.0 miSW (220°)11.5 mphClear
4:35 PM48.4 °F34.5 °F59 %29.86 in10.0 miSW (230°)8.1 mphClear
4:55 PM47.8 °F34.7 °F60 %29.86 in10.0 miSW (220°)8.1 mphClear
5:15 PM47.3 °F32.7 °F57 %29.86 in10.0 miSW (230°)8.1 mphClear
5:35 PM44.8 °F32.7 °F63 %29.86 in10.0 miSouth (190°)4.6 mphClear
5:55 PM43.5 °F34.0 °F69 %29.87 in10.0 miSouth (190°)4.6 mphClear
6:15 PM40.8 °F34.7 °F79 %29.87 in10.0 miSouth (190°)6.9 mphClear
6:35 PM40.5 °F34.2 °F78 %29.88 in10.0 miSouth (190°)6.9 mphClear
6:55 PM40.3 °F34.7 °F80 %29.88 in10.0 miSouth (190°)9.2 mphClear
7:15 PM42.8 °F35.8 °F76 %29.89 in10.0 miSSW (200°)12.7 mphClear
7:35 PM43.0 °F36.1 °F77 %29.89 in10.0 miSSW (200°)12.7 mphClear
7:55 PM42.1 °F36.1 °F79 %29.89 in10.0 miSSW (200°)11.5 mphClear
8:15 PM41.5 °F36.1 °F81 %29.89 in10.0 miSSW (200°)10.4 mphClear
8:35 PM41.2 °F36.1 °F82 %29.89 in10.0 miSSW (200°)11.5 mphClear
8:55 PM40.6 °F36.1 °F84 %29.90 in10.0 miSSW (200°)10.4 mphClear
9:15 PM39.6 °F36.1 °F88 %29.90 in10.0 miSouth (190°)9.2 mphClear
9:35 PM40.1 °F36.5 °F87 %29.90 in10.0 miSSW (200°)11.5 mphClear
9:55 PM40.1 °F36.5 °F87 %29.90 in10.0 miSouth (190°)10.4 mphClear
10:15 PM39.6 °F36.5 °F89 %29.90 in10.0 miSSW (200°)9.2 mphClear
10:35 PM39.9 °F36.7 °F88 %29.91 in10.0 miSSW (200°)10.4 mphClear
10:55 PM40.1 °F36.9 °F88 %29.91 in10.0 miSSW (200°)10.4 mphClear
11:15 PM40.1 °F37.2 °F89 %29.91 in10.0 miSSW (210°)10.4 mphClear
11:35 PM40.1 °F37.4 °F90 %29.91 in10.0 miSSW (210°)12.7 mphClear
11:55 PM40.3 °F37.8 °F91 %29.91 in10.0 miSSW (210°)11.5 mphClear
Hourly data recorded from KCUL, located miles away from Carmi, Illinois







STORIES FROM OUR PARTNERS